Location: Te Maire Creek
(41.1333°S, 175.9167°E)
Time: 23:51:01
(UTC+00:00)

Iridium 4 Rocket - Pass Details

Date: 19 May 2024
Orbit: 581 x 897 km, 86.9° (Epoch: 18 June)

Event Time Altitude Azimuth Distance (km) Brightness Sun altitude
Rises 18:17:13 0° 359° (N) 2,864 6.7 -12.2°
Reaches altitude 10° 18:19:19 10° 359° (N) 1,998 5.9 -11.8°
Maximum altitude 18:23:44 88° 272° (W) 673 3.2 -11.0°
Drops below altitude 10° 18:28:36 10° 178° (S) 2,203 5.7 -10.2°
Sets 18:31:01 0° 178° (S) 3,184 6.5 -9.7°
